When you browse on this site, cookies collect data to enhance your experience and personalize the content and advertising you see.
Visit our Privacy Policy to learn more. By continuing to use the site, you agree to this use of cookies and data.
  • In Hungary
  • List of Countries
  • For 7 days
  • Water Temperature
  • Weather Map
  • News
  • Weather Widgets
  • user-avatar
    Login

    Hourly Weather Amalapuram

    Today, 14 December, Saturday

    Time Temperature Precipitation Wind Pressure Humidity
    00:00 +24°C° 0 mm 2 mps 761 mmHg 90%
    01:00 +24°C° 0 mm 2 mps 760 mmHg 91%
    02:00 +24°C° 0 mm 2 mps 760 mmHg 92%
    03:00 +24°C° 0.2 mm 2 mps 760 mmHg 92%
    04:00 +24°C° 0.2 mm 2 mps 760 mmHg 92%
    05:00 +24°C° 0.2 mm 2 mps 760 mmHg 93%
    06:00 +25°C° 0.2 mm 3 mps 761 mmHg 86%
    07:00 +26°C° 0.2 mm 3 mps 762 mmHg 79%
    08:00 +28°C° 0.2 mm 4 mps 762 mmHg 72%
    09:00 +28°C° 0.3 mm 4 mps 762 mmHg 70%
    10:00 +29°C° 0.3 mm 4 mps 762 mmHg 68%
    11:00 +29°C° 0.3 mm 4 mps 762 mmHg 66%
    12:00 +29°C° 0.1 mm 4 mps 761 mmHg 63%
    13:00 +30°C° 0.1 mm 4 mps 760 mmHg 61%
    14:00 +30°C° 0.1 mm 4 mps 759 mmHg 58%
    15:00 +29°C° 0 mm 4 mps 759 mmHg 62%
    16:00 +28°C° 0 mm 4 mps 759 mmHg 66%
    17:00 +27°C° 0 mm 3 mps 759 mmHg 71%
    18:00 +26°C° 0 mm 3 mps 760 mmHg 74%
    19:00 +26°C° 0 mm 3 mps 760 mmHg 77%
    20:00 +25°C° 0 mm 3 mps 761 mmHg 80%
    21:00 +25°C° 0 mm 3 mps 761 mmHg 81%
    22:00 +25°C° 0 mm 3 mps 761 mmHg 83%
    23:00 +25°C° 0 mm 3 mps 760 mmHg 84%

    Tomorrow, 15 December, Sunday

    Time Temperature Precipitation Wind Pressure Humidity
    00:00 +24°C° 0 mm 3 mps 760 mmHg 85%
    01:00 +24°C° 0 mm 3 mps 760 mmHg 86%
    02:00 +24°C° 0 mm 2 mps 759 mmHg 87%
    03:00 +24°C° 0 mm 3 mps 760 mmHg 87%
    04:00 +24°C° 0 mm 3 mps 760 mmHg 87%
    05:00 +24°C° 0 mm 3 mps 760 mmHg 88%
    06:00 +25°C° 0 mm 3 mps 760 mmHg 82%
    07:00 +26°C° 0 mm 3 mps 761 mmHg 77%
    08:00 +27°C° 0 mm 4 mps 761 mmHg 71%
    09:00 +29°C° 0 mm 4 mps 761 mmHg 66%
    10:00 +30°C° 0 mm 4 mps 761 mmHg 60%
    11:00 +32°C° 0 mm 4 mps 760 mmHg 55%
    12:00 +32°C° 0 mm 4 mps 760 mmHg 54%
    13:00 +32°C° 0 mm 4 mps 759 mmHg 53%
    14:00 +32°C° 0 mm 4 mps 758 mmHg 52%
    15:00 +29°C° 0 mm 4 mps 758 mmHg 58%
    16:00 +28°C° 0 mm 4 mps 758 mmHg 63%
    17:00 +27°C° 0 mm 3 mps 758 mmHg 68%
    18:00 +26°C° 0 mm 3 mps 759 mmHg 72%
    19:00 +26°C° 0 mm 3 mps 759 mmHg 75%
    20:00 +25°C° 0 mm 2 mps 760 mmHg 78%
    21:00 +25°C° 0 mm 2 mps 760 mmHg 80%
    22:00 +25°C° 0 mm 2 mps 760 mmHg 81%
    23:00 +24°C° 0 mm 2 mps 760 mmHg 82%

    Day after tomorrow, 16 December, Monday

    Time Temperature Precipitation Wind Pressure Humidity
    00:00 +24°C° 0 mm 2 mps 759 mmHg 83%
    01:00 +24°C° 0 mm 2 mps 759 mmHg 84%
    02:00 +23°C° 0 mm 2 mps 759 mmHg 86%
    03:00 +23°C° 0 mm 2 mps 759 mmHg 86%
    04:00 +23°C° 0 mm 2 mps 759 mmHg 86%
    05:00 +23°C° 0 mm 2 mps 759 mmHg 87%
    06:00 +24°C° 0 mm 3 mps 760 mmHg 80%
    07:00 +26°C° 0 mm 3 mps 760 mmHg 73%
    08:00 +27°C° 0 mm 4 mps 761 mmHg 66%
    09:00 +29°C° 0 mm 4 mps 761 mmHg 60%
    10:00 +30°C° 0 mm 4 mps 761 mmHg 54%
    11:00 +32°C° 0 mm 4 mps 760 mmHg 48%
    12:00 +32°C° 0 mm 4 mps 760 mmHg 47%
    13:00 +32°C° 0 mm 4 mps 759 mmHg 45%
    14:00 +32°C° 0 mm 4 mps 758 mmHg 43%
    15:00 +30°C° 0 mm 4 mps 758 mmHg 49%
    16:00 +28°C° 0 mm 3 mps 758 mmHg 54%
    17:00 +27°C° 0 mm 3 mps 758 mmHg 60%
    18:00 +26°C° 0 mm 3 mps 759 mmHg 64%
    19:00 +26°C° 0 mm 3 mps 760 mmHg 69%
    20:00 +25°C° 0 mm 3 mps 760 mmHg 73%
    21:00 +25°C° 0 mm 3 mps 760 mmHg 74%
    22:00 +25°C° 0 mm 2 mps 760 mmHg 76%
    23:00 +24°C° 0 mm 2 mps 760 mmHg 77%

    17 December, Tuesday

    Time Temperature Precipitation Wind Pressure Humidity
    00:00 +24°C° 0 mm 2 mps 760 mmHg 78%
    01:00 +24°C° 0 mm 2 mps 759 mmHg 79%
    02:00 +24°C° 0 mm 2 mps 759 mmHg 80%
    03:00 +22°C° 0 mm 3 mps 759 mmHg 81%
    04:00 +22°C° 0 mm 3 mps 759 mmHg 82%
    05:00 +22°C° 0 mm 3 mps 759 mmHg 84%
    06:00 +24°C° 0 mm 3 mps 760 mmHg 78%
    07:00 +26°C° 0 mm 3 mps 760 mmHg 72%
    08:00 +27°C° 0 mm 4 mps 761 mmHg 67%
    09:00 +28°C° 0 mm 4 mps 761 mmHg 60%
    10:00 +30°C° 0 mm 4 mps 761 mmHg 54%
    11:00 +32°C° 0 mm 4 mps 760 mmHg 48%
    12:00 +32°C° 0 mm 4 mps 760 mmHg 46%
    13:00 +32°C° 0 mm 4 mps 759 mmHg 44%
    14:00 +32°C° 0 mm 4 mps 758 mmHg 42%
    15:00 +30°C° 0 mm 4 mps 758 mmHg 48%
    16:00 +28°C° 0 mm 3 mps 759 mmHg 53%
    17:00 +27°C° 0 mm 3 mps 759 mmHg 59%
    18:00 +26°C° 0 mm 3 mps 759 mmHg 63%
    19:00 +25°C° 0 mm 3 mps 760 mmHg 68%
    20:00 +25°C° 0 mm 2 mps 760 mmHg 73%
    21:00 +24°C° 0 mm 2 mps 760 mmHg 74%
    22:00 +24°C° 0 mm 2 mps 760 mmHg 74%
    23:00 +24°C° 0 mm 2 mps 760 mmHg 75%

    18 December, Wednesday

    Time Temperature Precipitation Wind Pressure Humidity
    00:00 +24°C° 0 mm 2 mps 760 mmHg 77%
    01:00 +23°C° 0 mm 2 mps 759 mmHg 79%
    02:00 +23°C° 0 mm 2 mps 759 mmHg 81%
    03:00 +23°C° 0 mm 2 mps 759 mmHg 83%
    04:00 +21°C° 0 mm 2 mps 759 mmHg 84%
    05:00 +21°C° 0 mm 2 mps 759 mmHg 86%
    06:00 +24°C° 0 mm 3 mps 760 mmHg 80%
    07:00 +25°C° 0 mm 3 mps 761 mmHg 74%
    08:00 +27°C° 0 mm 3 mps 762 mmHg 69%
    09:00 +28°C° 0 mm 3 mps 761 mmHg 62%
    10:00 +30°C° 0 mm 4 mps 761 mmHg 55%
    11:00 +33°C° 0 mm 4 mps 761 mmHg 49%
    12:00 +33°C° 0 mm 4 mps 760 mmHg 48%
    13:00 +32°C° 0 mm 4 mps 759 mmHg 48%
    14:00 +32°C° 0 mm 4 mps 759 mmHg 48%
    15:00 +30°C° 0 mm 4 mps 759 mmHg 54%
    16:00 +28°C° 0 mm 3 mps 759 mmHg 61%
    17:00 +27°C° 0 mm 3 mps 759 mmHg 68%
    18:00 +26°C° 0 mm 3 mps 759 mmHg 73%
    19:00 +26°C° 0 mm 3 mps 760 mmHg 77%
    20:00 +25°C° 0 mm 3 mps 760 mmHg 82%
    21:00 +25°C° 0 mm 2 mps 760 mmHg 83%
    22:00 +24°C° 0 mm 2 mps 760 mmHg 84%
    23:00 +24°C° 0 mm 2 mps 760 mmHg 85%

    19 December, Thursday

    Time Temperature Precipitation Wind Pressure Humidity
    00:00 +24°C° 0 mm 2 mps 760 mmHg 86%
    01:00 +24°C° 0 mm 2 mps 759 mmHg 88%
    02:00 +23°C° 0 mm 2 mps 759 mmHg 89%
    03:00 +23°C° 0 mm 2 mps 759 mmHg 90%
    04:00 +23°C° 0 mm 2 mps 759 mmHg 91%
    05:00 +21°C° 0 mm 2 mps 759 mmHg 91%
    06:00 +24°C° 0 mm 2 mps 760 mmHg 85%
    07:00 +25°C° 0 mm 2 mps 760 mmHg 78%
    08:00 +27°C° 0 mm 2 mps 761 mmHg 71%
    09:00 +29°C° 0 mm 2 mps 760 mmHg 64%
    10:00 +30°C° 0 mm 3 mps 760 mmHg 56%
    11:00 +33°C° 0 mm 3 mps 760 mmHg 49%
    12:00 +33°C° 0 mm 3 mps 759 mmHg 49%
    13:00 +33°C° 0 mm 3 mps 758 mmHg 50%
    14:00 +31°C° 0 mm 3 mps 757 mmHg 50%
    15:00 +30°C° 0 mm 3 mps 758 mmHg 56%
    16:00 +29°C° 0 mm 3 mps 758 mmHg 62%
    17:00 +27°C° 0 mm 3 mps 758 mmHg 68%
    18:00 +26°C° 0 mm 2 mps 758 mmHg 73%
    19:00 +25°C° 0 mm 2 mps 759 mmHg 77%
    20:00 +25°C° 0 mm 1 mps 759 mmHg 82%
    21:00 +24°C° 0 mm 1 mps 759 mmHg 83%
    22:00 +24°C° 0 mm 1 mps 759 mmHg 84%
    23:00 +24°C° 0 mm 1 mps 759 mmHg 85%
    Show more